Time,TemperatureF,DewpointF,PressureIn,WindDirection,WindDirectionDegrees,WindSpeedMPH,WindSpeedGustMPH,Humidity,HourlyPrecipIn,Conditions,Clouds,dailyrainin,SoftwareType,DateUTC
2013-01-05 00:00:00,36.1,24.0,30.34,North,11,1.0,5.0,61,0.00,,---,0.00,VWS V14.00,2013-01-05 05:00:00,
2013-01-05 00:01:00,36.1,24.0,30.35,North,11,0.0,0.0,61,0.00,,---,0.00,VWS V14.00,2013-01-05 05:01:00,
2013-01-05 00:06:00,36.0,23.9,30.35,North,360,4.0,4.0,61,0.00,,---,0.00,VWS V14.00,2013-01-05 05:06:00,
2013-01-05 00:11:00,36.0,24.3,30.34,NNW,339,0.0,0.0,62,0.00,,---,0.00,VWS V14.00,2013-01-05 05:11:00,
2013-01-05 00:16:00,35.9,24.2,30.34,NE,42,0.0,0.0,62,0.00,,---,0.00,VWS V14.00,2013-01-05 05:16:00,
2013-01-05 00:21:00,35.7,23.6,30.34,NW,325,0.0,0.0,61,0.00,,---,0.00,VWS V14.00,2013-01-05 05:21:00,
2013-01-05 00:26:00,35.6,23.9,30.34,NNW,327,0.0,0.0,62,0.00,,---,0.00,VWS V14.00,2013-01-05 05:26:00,
2013-01-05 00:31:00,35.4,23.7,30.34,ENE,57,0.0,0.0,62,0.00,,---,0.00,VWS V14.00,2013-01-05 05:31:00,
2013-01-05 00:36:00,35.2,24.3,30.34,NNE,15,0.0,3.0,64,0.00,,---,0.00,VWS V14.00,2013-01-05 05:36:00,
2013-01-05 00:41:00,35.0,24.4,30.34,NNE,15,0.0,0.0,65,0.00,,---,0.00,VWS V14.00,2013-01-05 05:41:00,
2013-01-05 00:46:00,34.8,23.9,30.34,North,355,0.0,0.0,64,0.00,,---,0.00,VWS V14.00,2013-01-05 05:46:00,
2013-01-05 00:51:00,34.7,24.1,30.33,NNW,345,2.0,2.0,65,0.00,,---,0.00,VWS V14.00,2013-01-05 05:51:00,
2013-01-05 00:56:00,34.6,23.7,30.34,NNE,22,0.0,0.0,64,0.00,,---,0.00,VWS V14.00,2013-01-05 05:56:00,
2013-01-05 01:01:00,34.6,23.7,30.33,NNE,24,0.0,0.0,64,0.00,,---,0.00,VWS V14.00,2013-01-05 06:01:00,
2013-01-05 01:06:00,34.7,24.1,30.33,West,259,3.0,4.0,65,0.00,,---,0.00,VWS V14.00,2013-01-05 06:06:00,
2013-01-05 01:11:00,34.7,23.4,30.34,West,259,0.0,0.0,63,0.00,,---,0.00,VWS V14.00,2013-01-05 06:11:00,
2013-01-05 01:16:00,34.7,23.4,30.33,West,263,0.0,1.0,63,0.00,,---,0.00,VWS V14.00,2013-01-05 06:16:00,
2013-01-05 01:21:00,34.6,23.3,30.34,West,263,0.0,0.0,63,0.00,,---,0.00,VWS V14.00,2013-01-05 06:21:00,
2013-01-05 01:26:00,34.5,24.0,30.33,WNW,300,0.0,0.0,65,0.00,,---,0.00,VWS V14.00,2013-01-05 06:26:00,
2013-01-05 01:31:00,34.2,23.3,30.34,WNW,300,0.0,0.0,64,0.00,,---,0.00,VWS V14.00,2013-01-05 06:31:00,
2013-01-05 01:36:00,33.9,23.4,30.34,WNW,300,0.0,0.0,65,0.00,,---,0.00,VWS V14.00,2013-01-05 06:36:00,
2013-01-05 01:41:00,33.6,23.8,30.34,WNW,300,0.0,0.0,67,0.00,,---,0.00,VWS V14.00,2013-01-05 06:41:00,
2013-01-05 01:46:00,33.4,23.6,30.34,NW,307,0.0,0.0,67,0.00,,---,0.00,VWS V14.00,2013-01-05 06:46:00,
2013-01-05 01:51:00,33.2,23.5,30.34,NW,307,0.0,0.0,67,0.00,,---,0.00,VWS V14.00,2013-01-05 06:51:00,
2013-01-05 01:56:00,32.9,23.9,30.34,NW,307,0.0,0.0,69,0.00,,---,0.00,VWS V14.00,2013-01-05 06:56:00,
2013-01-05 02:01:00,32.6,23.9,30.34,NW,307,0.0,0.0,70,0.00,,---,0.00,VWS V14.00,2013-01-05 07:01:00,
2013-01-05 02:06:00,32.4,23.7,30.34,NW,307,0.0,0.0,70,0.00,,---,0.00,VWS V14.00,2013-01-05 07:06:00,
2013-01-05 02:11:00,32.2,23.5,30.34,NW,307,0.0,0.0,70,0.00,,---,0.00,VWS V14.00,2013-01-05 07:11:00,
2013-01-05 02:16:00,32.0,23.7,30.34,NW,307,0.0,0.0,71,0.00,,---,0.00,VWS V14.00,2013-01-05 07:16:00,
2013-01-05 02:21:00,31.9,23.9,30.34,NW,307,0.0,0.0,72,0.00,,---,0.00,VWS V14.00,2013-01-05 07:21:00,
2013-01-05 02:26:00,31.6,23.6,30.35,NW,307,0.0,0.0,72,0.00,,---,0.00,VWS V14.00,2013-01-05 07:26:00,
2013-01-05 02:31:00,31.4,23.4,30.35,NW,307,0.0,0.0,72,0.00,,---,0.00,VWS V14.00,2013-01-05 07:31:00,
2013-01-05 02:36:00,31.2,23.6,30.35,NW,307,0.0,0.0,73,0.00,,---,0.00,VWS V14.00,2013-01-05 07:36:00,
2013-01-05 02:41:00,31.0,23.4,30.35,NW,307,0.0,0.0,73,0.00,,---,0.00,VWS V14.00,2013-01-05 07:41:00,
2013-01-05 02:46:00,30.8,23.2,30.35,NW,307,0.0,0.0,73,0.00,,---,0.00,VWS V14.00,2013-01-05 07:46:00,
2013-01-05 02:51:00,30.8,23.5,30.35,NW,307,0.0,0.0,74,0.00,,---,0.00,VWS V14.00,2013-01-05 07:51:00,
2013-01-05 02:56:00,30.8,23.2,30.35,NW,307,0.0,0.0,73,0.00,,---,0.00,VWS V14.00,2013-01-05 07:56:00,
2013-01-05 03:01:00,30.7,23.7,30.35,NW,307,0.0,0.0,75,0.00,,---,0.00,VWS V14.00,2013-01-05 08:01:00,
2013-01-05 03:06:00,30.6,23.6,30.35,NW,307,0.0,2.0,75,0.00,,---,0.00,VWS V14.00,2013-01-05 08:06:00,
2013-01-05 03:11:00,30.5,23.5,30.35,NW,307,0.0,0.0,75,0.00,,---,0.00,VWS V14.00,2013-01-05 08:11:00,
2013-01-05 03:16:00,30.3,23.3,30.35,NW,307,0.0,0.0,75,0.00,,---,0.00,VWS V14.00,2013-01-05 08:16:00,
2013-01-05 03:21:00,30.3,23.3,30.35,NW,311,0.0,1.0,75,0.00,,---,0.00,VWS V14.00,2013-01-05 08:21:00,
2013-01-05 03:26:00,30.5,23.2,30.35,NW,311,0.0,0.0,74,0.00,,---,0.00,VWS V14.00,2013-01-05 08:26:00,
2013-01-05 03:31:00,30.7,23.7,30.35,NW,311,0.0,1.0,75,0.00,,---,0.00,VWS V14.00,2013-01-05 08:31:00,
2013-01-05 03:36:00,30.8,23.5,30.35,NW,310,0.0,0.0,74,0.00,,---,0.00,VWS V14.00,2013-01-05 08:36:00,
2013-01-05 03:41:00,30.9,23.6,30.34,NW,310,0.0,0.0,74,0.00,,---,0.00,VWS V14.00,2013-01-05 08:41:00,
2013-01-05 03:46:00,30.9,23.6,30.34,NW,310,0.0,0.0,74,0.00,,---,0.00,VWS V14.00,2013-01-05 08:46:00,
2013-01-05 03:51:00,31.0,23.4,30.34,NW,315,7.0,7.0,73,0.00,,---,0.00,VWS V14.00,2013-01-05 08:51:00,
2013-01-05 03:56:00,31.1,23.5,30.34,NNW,346,0.0,0.0,73,0.00,,---,0.00,VWS V14.00,2013-01-05 08:56:00,
2013-01-05 04:01:00,31.4,23.1,30.33,North,5,6.0,6.0,71,0.00,,---,0.00,VWS V14.00,2013-01-05 09:01:00,
2013-01-05 04:06:00,31.8,22.8,30.33,North,360,0.0,0.0,69,0.00,,---,0.00,VWS V14.00,2013-01-05 09:06:00,
2013-01-05 04:11:00,32.2,22.5,30.33,NNW,345,0.0,3.0,67,0.00,,---,0.00,VWS V14.00,2013-01-05 09:11:00,
2013-01-05 04:16:00,32.6,22.9,30.33,NNE,12,0.0,0.0,67,0.00,,---,0.00,VWS V14.00,2013-01-05 09:16:00,
2013-01-05 04:21:00,32.8,23.1,30.33,NNE,12,1.0,1.0,67,0.00,,---,0.00,VWS V14.00,2013-01-05 09:21:00,
2013-01-05 04:26:00,33.0,22.9,30.33,North,360,0.0,0.0,66,0.00,,---,0.00,VWS V14.00,2013-01-05 09:26:00,
2013-01-05 04:31:00,33.2,22.7,30.33,NW,315,1.0,3.0,65,0.00,,---,0.00,VWS V14.00,2013-01-05 09:31:00,
2013-01-05 04:36:00,33.3,23.2,30.33,NNE,13,0.0,0.0,66,0.00,,---,0.00,VWS V14.00,2013-01-05 09:36:00,
2013-01-05 04:41:00,33.3,22.5,30.33,NNW,340,0.0,4.0,64,0.00,,---,0.00,VWS V14.00,2013-01-05 09:41:00,
2013-01-05 04:46:00,33.3,22.8,30.33,North,355,0.0,0.0,65,0.00,,---,0.00,VWS V14.00,2013-01-05 09:46:00,
2013-01-05 04:51:00,33.1,23.0,30.33,North,5,0.0,0.0,66,0.00,,---,0.00,VWS V14.00,2013-01-05 09:51:00,
2013-01-05 04:56:00,32.9,22.4,30.33,North,5,0.0,0.0,65,0.00,,---,0.00,VWS V14.00,2013-01-05 09:56:00,
2013-01-05 05:01:00,32.7,22.6,30.33,North,5,0.0,0.0,66,0.00,,---,0.00,VWS V14.00,2013-01-05 10:01:00,
2013-01-05 05:06:00,32.5,22.4,30.33,North,5,0.0,0.0,66,0.00,,---,0.00,VWS V14.00,2013-01-05 10:06:00,
2013-01-05 05:11:00,32.3,22.2,30.33,North,5,0.0,0.0,66,0.00,,---,0.00,VWS V14.00,2013-01-05 10:11:00,
2013-01-05 05:16:00,32.1,22.4,30.33,North,5,0.0,0.0,67,0.00,,---,0.00,VWS V14.00,2013-01-05 10:16:00,
2013-01-05 05:21:00,31.9,21.9,30.33,North,5,0.0,0.0,66,0.00,,---,0.00,VWS V14.00,2013-01-05 10:21:00,
2013-01-05 05:26:00,31.7,22.4,30.33,North,5,0.0,0.0,68,0.00,,---,0.00,VWS V14.00,2013-01-05 10:26:00,
2013-01-05 05:31:00,31.5,22.2,30.33,North,5,0.0,0.0,68,0.00,,---,0.00,VWS V14.00,2013-01-05 10:31:00,
2013-01-05 05:36:00,31.3,22.3,30.33,North,5,0.0,0.0,69,0.00,,---,0.00,VWS V14.00,2013-01-05 10:36:00,
2013-01-05 05:41:00,31.2,22.2,30.34,North,5,0.0,0.0,69,0.00,,---,0.00,VWS V14.00,2013-01-05 10:41:00,
2013-01-05 05:46:00,31.0,22.4,30.33,North,5,0.0,0.0,70,0.00,,---,0.00,VWS V14.00,2013-01-05 10:46:00,
2013-01-05 05:51:00,30.8,21.9,30.34,North,5,0.0,0.0,69,0.00,,---,0.00,VWS V14.00,2013-01-05 10:51:00,
2013-01-05 05:56:00,30.5,21.9,30.34,North,5,0.0,0.0,70,0.00,,---,0.00,VWS V14.00,2013-01-05 10:56:00,
2013-01-05 06:01:00,30.2,21.9,30.34,North,5,0.0,0.0,71,0.00,,---,0.00,VWS V14.00,2013-01-05 11:01:00,
2013-01-05 06:06:00,29.9,22.0,30.35,North,5,0.0,0.0,72,0.00,,---,0.00,VWS V14.00,2013-01-05 11:06:00,
2013-01-05 06:11:00,29.6,22.4,30.35,North,5,0.0,0.0,74,0.00,,---,0.00,VWS V14.00,2013-01-05 11:11:00,
2013-01-05 06:16:00,29.4,22.8,30.35,North,5,0.0,0.0,76,0.00,,---,0.00,VWS V14.00,2013-01-05 11:16:00,
2013-01-05 06:21:00,29.2,22.6,30.35,North,5,0.0,0.0,76,0.00,,---,0.00,VWS V14.00,2013-01-05 11:21:00,
2013-01-05 06:26:00,29.0,22.4,30.35,North,5,0.0,0.0,76,0.00,,---,0.00,VWS V14.00,2013-01-05 11:26:00,
2013-01-05 06:31:00,28.8,22.2,30.35,North,5,0.0,0.0,76,0.00,,---,0.00,VWS V14.00,2013-01-05 11:31:00,
2013-01-05 06:36:00,28.6,22.6,30.35,North,5,0.0,0.0,78,0.00,,---,0.00,VWS V14.00,2013-01-05 11:36:00,
2013-01-05 06:41:00,28.4,22.4,30.36,North,5,0.0,0.0,78,0.00,,---,0.00,VWS V14.00,2013-01-05 11:41:00,
2013-01-05 06:46:00,28.3,22.3,30.36,North,5,0.0,0.0,78,0.00,,---,0.00,VWS V14.00,2013-01-05 11:46:00,
2013-01-05 06:51:00,28.2,21.9,30.36,North,5,0.0,0.0,77,0.00,,---,0.00,VWS V14.00,2013-01-05 11:51:00,
2013-01-05 06:56:00,28.1,22.1,30.36,North,5,0.0,0.0,78,0.00,,---,0.00,VWS V14.00,2013-01-05 11:56:00,
2013-01-05 07:01:00,28.0,22.0,30.36,North,5,0.0,0.0,78,0.00,,---,0.00,VWS V14.00,2013-01-05 12:01:00,
2013-01-05 07:06:00,27.9,22.2,30.36,North,5,0.0,0.0,79,0.00,,---,0.00,VWS V14.00,2013-01-05 12:06:00,
2013-01-05 07:11:00,28.0,22.0,30.37,North,5,0.0,0.0,78,0.00,,---,0.00,VWS V14.00,2013-01-05 12:11:00,
2013-01-05 07:16:00,28.0,22.0,30.37,North,5,0.0,0.0,78,0.00,,---,0.00,VWS V14.00,2013-01-05 12:16:00,
2013-01-05 07:21:00,28.1,22.1,30.37,North,5,0.0,0.0,78,0.00,,---,0.00,VWS V14.00,2013-01-05 12:21:00,
2013-01-05 07:26:00,28.3,22.3,30.38,North,5,0.0,0.0,78,0.00,,---,0.00,VWS V14.00,2013-01-05 12:26:00,
2013-01-05 07:31:00,28.5,22.8,30.38,North,5,0.0,0.0,79,0.00,,---,0.00,VWS V14.00,2013-01-05 12:31:00,
2013-01-05 07:36:00,28.5,22.8,30.38,North,5,0.0,0.0,79,0.00,,---,0.00,VWS V14.00,2013-01-05 12:36:00,
2013-01-05 07:41:00,28.6,22.9,30.38,North,5,0.0,0.0,79,0.00,,---,0.00,VWS V14.00,2013-01-05 12:41:00,
2013-01-05 07:46:00,28.5,22.8,30.38,North,5,0.0,0.0,79,0.00,,---,0.00,VWS V14.00,2013-01-05 12:46:00,
2013-01-05 07:51:00,28.5,22.8,30.38,North,5,0.0,0.0,79,0.00,,---,0.00,VWS V14.00,2013-01-05 12:51:00,
2013-01-05 07:56:00,28.5,22.5,30.38,North,5,0.0,0.0,78,0.00,,---,0.00,VWS V14.00,2013-01-05 12:56:00,
2013-01-05 08:01:00,28.5,22.5,30.39,North,5,0.0,0.0,78,0.00,,---,0.00,VWS V14.00,2013-01-05 13:01:00,
2013-01-05 08:06:00,28.4,22.7,30.39,North,5,0.0,0.0,79,0.00,,---,0.00,VWS V14.00,2013-01-05 13:06:00,
2013-01-05 08:11:00,28.4,23.0,30.39,North,5,0.0,0.0,80,0.00,,---,0.00,VWS V14.00,2013-01-05 13:11:00,
2013-01-05 08:16:00,28.5,23.4,30.39,NNW,334,2.0,3.0,81,0.00,,---,0.00,VWS V14.00,2013-01-05 13:16:00,
2013-01-05 08:21:00,29.0,23.3,30.40,NNW,334,0.0,0.0,79,0.00,,---,0.00,VWS V14.00,2013-01-05 13:21:00,
2013-01-05 08:26:00,29.5,23.5,30.39,NW,313,0.0,0.0,78,0.00,,---,0.00,VWS V14.00,2013-01-05 13:26:00,
2013-01-05 08:31:00,30.2,23.9,30.40,NW,313,0.0,0.0,77,0.00,,---,0.00,VWS V14.00,2013-01-05 13:31:00,
2013-01-05 08:36:00,31.0,24.0,30.40,West,277,2.0,2.0,75,0.00,,---,0.00,VWS V14.00,2013-01-05 13:36:00,
2013-01-05 08:41:00,31.6,24.0,30.40,WSW,245,1.0,2.0,73,0.00,,---,0.00,VWS V14.00,2013-01-05 13:41:00,
2013-01-05 08:46:00,32.2,24.2,30.40,West,278,2.0,3.0,72,0.00,,---,0.00,VWS V14.00,2013-01-05 13:46:00,
2013-01-05 08:51:00,32.7,24.4,30.40,West,277,0.0,0.0,71,0.00,,---,0.00,VWS V14.00,2013-01-05 13:51:00,
2013-01-05 08:56:00,33.2,24.1,30.40,West,277,1.0,1.0,69,0.00,,---,0.00,VWS V14.00,2013-01-05 13:56:00,
2013-01-05 09:01:00,33.6,24.5,30.40,West,277,0.0,0.0,69,0.00,,---,0.00,VWS V14.00,2013-01-05 14:01:00,
2013-01-05 09:06:00,34.1,25.0,30.41,West,277,0.0,0.0,69,0.00,,---,0.00,VWS V14.00,2013-01-05 14:06:00,
2013-01-05 09:11:00,34.9,24.7,30.40,West,277,1.0,1.0,66,0.00,,---,0.00,VWS V14.00,2013-01-05 14:11:00,
2013-01-05 09:16:00,35.7,25.1,30.40,West,277,0.0,0.0,65,0.00,,---,0.00,VWS V14.00,2013-01-05 14:16:00,
2013-01-05 09:21:00,36.5,24.7,30.40,West,277,0.0,0.0,62,0.00,,---,0.00,VWS V14.00,2013-01-05 14:21:00,
2013-01-05 09:26:00,37.2,25.8,30.40,West,277,0.0,0.0,63,0.00,,---,0.00,VWS V14.00,2013-01-05 14:26:00,
2013-01-05 09:31:00,37.8,25.2,30.40,West,277,0.0,1.0,60,0.00,,---,0.00,VWS V14.00,2013-01-05 14:31:00,
2013-01-05 09:36:00,38.2,26.0,30.40,West,277,2.0,2.0,61,0.00,,---,0.00,VWS V14.00,2013-01-05 14:36:00,
2013-01-05 09:41:00,38.7,25.6,30.40,West,277,1.0,1.0,59,0.00,,---,0.00,VWS V14.00,2013-01-05 14:41:00,
2013-01-05 09:46:00,39.0,24.6,30.40,SW,235,2.0,3.0,56,0.00,,---,0.00,VWS V14.00,2013-01-05 14:46:00,
2013-01-05 09:51:00,39.3,24.5,30.41,SW,235,2.0,4.0,55,0.00,,---,0.00,VWS V14.00,2013-01-05 14:51:00,
2013-01-05 09:56:00,39.5,25.1,30.41,WSW,257,1.0,3.0,56,0.00,,---,0.00,VWS V14.00,2013-01-05 14:56:00,
2013-01-05 10:01:00,39.7,25.3,30.41,SW,230,3.0,3.0,56,0.00,,---,0.00,VWS V14.00,2013-01-05 15:01:00,
2013-01-05 10:06:00,39.9,24.6,30.40,SW,229,1.0,1.0,54,0.00,,---,0.00,VWS V14.00,2013-01-05 15:06:00,
2013-01-05 10:11:00,40.2,26.2,30.40,WSW,241,2.0,4.0,57,0.00,,---,0.00,VWS V14.00,2013-01-05 15:11:00,
2013-01-05 10:16:00,40.6,25.3,30.40,WSW,241,1.0,1.0,54,0.00,,---,0.00,VWS V14.00,2013-01-05 15:16:00,
2013-01-05 10:21:00,41.0,25.2,30.40,WSW,252,1.0,2.0,53,0.00,,---,0.00,VWS V14.00,2013-01-05 15:21:00,
2013-01-05 10:26:00,41.1,24.8,30.40,WSW,252,3.0,3.0,52,0.00,,---,0.00,VWS V14.00,2013-01-05 15:26:00,
2013-01-05 10:31:00,41.1,26.6,30.41,WSW,252,0.0,0.0,56,0.00,,---,0.00,VWS V14.00,2013-01-05 15:31:00,
2013-01-05 10:36:00,41.2,26.3,30.40,WSW,251,3.0,4.0,55,0.00,,---,0.00,VWS V14.00,2013-01-05 15:36:00,
2013-01-05 10:41:00,41.4,25.6,30.41,WSW,247,4.0,4.0,53,0.00,,---,0.00,VWS V14.00,2013-01-05 15:41:00,
2013-01-05 10:46:00,41.8,26.8,30.41,WSW,244,3.0,3.0,55,0.00,,---,0.00,VWS V14.00,2013-01-05 15:46:00,
2013-01-05 10:51:00,42.3,25.9,30.41,WSW,256,4.0,5.0,52,0.00,,---,0.00,VWS V14.00,2013-01-05 15:51:00,
2013-01-05 10:56:00,42.4,25.6,30.41,WSW,243,8.0,8.0,51,0.00,,---,0.00,VWS V14.00,2013-01-05 15:56:00,
2013-01-05 11:01:00,42.4,26.5,30.41,WSW,245,3.0,5.0,53,0.00,,---,0.00,VWS V14.00,2013-01-05 16:01:00,
2013-01-05 11:06:00,42.9,27.0,30.40,WSW,250,4.0,4.0,53,0.00,,---,0.00,VWS V14.00,2013-01-05 16:06:00,
2013-01-05 11:11:00,43.2,27.2,30.41,West,261,3.0,4.0,53,0.00,,---,0.00,VWS V14.00,2013-01-05 16:11:00,
2013-01-05 11:16:00,43.4,26.5,30.41,West,261,5.0,5.0,51,0.00,,---,0.00,VWS V14.00,2013-01-05 16:16:00,
2013-01-05 11:21:00,43.8,26.9,30.40,SW,215,5.0,7.0,51,0.00,,---,0.00,VWS V14.00,2013-01-05 16:21:00,
2013-01-05 11:26:00,44.3,25.9,30.39,SW,219,1.0,3.0,48,0.00,,---,0.00,VWS V14.00,2013-01-05 16:26:00,
2013-01-05 11:31:00,44.7,25.7,30.39,SSW,196,3.0,5.0,47,0.00,,---,0.00,VWS V14.00,2013-01-05 16:31:00,
2013-01-05 11:36:00,45.4,26.4,30.39,SW,236,0.0,2.0,47,0.00,,---,0.00,VWS V14.00,2013-01-05 16:36:00,
2013-01-05 11:41:00,45.8,24.6,30.38,WSW,248,3.0,5.0,43,0.00,,---,0.00,VWS V14.00,2013-01-05 16:41:00,
2013-01-05 11:46:00,45.9,25.8,30.38,WSW,241,2.0,2.0,45,0.00,,---,0.00,VWS V14.00,2013-01-05 16:46:00,
2013-01-05 11:51:00,46.0,24.8,30.38,SSE,155,8.0,8.0,43,0.00,,---,0.00,VWS V14.00,2013-01-05 16:51:00,
2013-01-05 11:56:00,46.2,26.0,30.38,SSW,192,0.0,0.0,45,0.00,,---,0.00,VWS V14.00,2013-01-05 16:56:00,
2013-01-05 12:01:00,46.2,24.4,30.37,WSW,237,6.0,6.0,42,0.00,,---,0.00,VWS V14.00,2013-01-05 17:01:00,
2013-01-05 12:06:00,46.2,25.0,30.36,WSW,242,3.0,4.0,43,0.00,,---,0.00,VWS V14.00,2013-01-05 17:06:00,
2013-01-05 12:12:00,46.5,24.7,30.36,WSW,246,0.0,0.0,42,0.00,,---,0.00,VWS V14.00,2013-01-05 17:12:00,
2013-01-05 12:17:00,46.4,25.1,30.36,SSW,202,4.0,6.0,43,0.00,,---,0.00,VWS V14.00,2013-01-05 17:17:00,
2013-01-05 12:22:00,46.3,25.6,30.35,SSW,204,3.0,4.0,44,0.00,,---,0.00,VWS V14.00,2013-01-05 17:22:00,
2013-01-05 12:27:00,46.3,26.1,30.36,WSW,251,6.0,6.0,45,0.00,,---,0.00,VWS V14.00,2013-01-05 17:27:00,
2013-01-05 12:32:00,46.3,26.1,30.35,SW,223,1.0,5.0,45,0.00,,---,0.00,VWS V14.00,2013-01-05 17:32:00,
2013-01-05 12:37:00,46.3,25.0,30.35,SW,224,2.0,7.0,43,0.00,,---,0.00,VWS V14.00,2013-01-05 17:37:00,
2013-01-05 12:42:00,46.4,25.7,30.34,SW,228,4.0,6.0,44,0.00,,---,0.00,VWS V14.00,2013-01-05 17:42:00,
2013-01-05 12:47:00,46.4,26.2,30.34,SW,228,0.0,0.0,45,0.00,,---,0.00,VWS V14.00,2013-01-05 17:47:00,
2013-01-05 12:52:00,46.7,26.0,30.34,WSW,251,6.0,7.0,44,0.00,,---,0.00,VWS V14.00,2013-01-05 17:52:00,
2013-01-05 12:57:00,46.8,24.9,30.34,WSW,255,0.0,4.0,42,0.00,,---,0.00,VWS V14.00,2013-01-05 17:57:00,
2013-01-05 13:02:00,46.9,25.0,30.34,SW,225,0.0,3.0,42,0.00,,---,0.00,VWS V14.00,2013-01-05 18:02:00,
2013-01-05 13:07:00,46.9,25.0,30.34,SW,226,5.0,5.0,42,0.00,,---,0.00,VWS V14.00,2013-01-05 18:07:00,
2013-01-05 13:12:00,46.7,25.4,30.34,West,273,5.0,6.0,43,0.00,,---,0.00,VWS V14.00,2013-01-05 18:12:00,
2013-01-05 13:17:00,46.8,25.5,30.34,West,271,3.0,5.0,43,0.00,,---,0.00,VWS V14.00,2013-01-05 18:17:00,
2013-01-05 13:22:00,46.9,25.6,30.33,West,277,5.0,7.0,43,0.00,,---,0.00,VWS V14.00,2013-01-05 18:22:00,
2013-01-05 13:27:00,46.9,26.1,30.33,SW,235,5.0,8.0,44,0.00,,---,0.00,VWS V14.00,2013-01-05 18:27:00,
2013-01-05 13:32:00,46.9,26.7,30.32,WSW,247,0.0,0.0,45,0.00,,---,0.00,VWS V14.00,2013-01-05 18:32:00,
2013-01-05 13:37:00,47.0,26.2,30.32,WNW,284,3.0,9.0,44,0.00,,---,0.00,VWS V14.00,2013-01-05 18:37:00,
2013-01-05 13:42:00,47.0,26.8,30.33,SW,227,8.0,8.0,45,0.00,,---,0.00,VWS V14.00,2013-01-05 18:42:00,
2013-01-05 13:47:00,47.1,26.3,30.32,WSW,254,0.0,2.0,44,0.00,,---,0.00,VWS V14.00,2013-01-05 18:47:00,
2013-01-05 13:52:00,47.1,25.8,30.32,SW,236,1.0,4.0,43,0.00,,---,0.00,VWS V14.00,2013-01-05 18:52:00,
2013-01-05 13:57:00,47.3,27.0,30.32,West,263,5.0,8.0,45,0.00,,---,0.00,VWS V14.00,2013-01-05 18:57:00,
2013-01-05 14:02:00,47.4,26.0,30.32,WSW,254,3.0,6.0,43,0.00,,---,0.00,VWS V14.00,2013-01-05 19:02:00,
2013-01-05 14:07:00,47.4,26.0,30.31,SW,235,2.0,7.0,43,0.00,,---,0.00,VWS V14.00,2013-01-05 19:07:00,
2013-01-05 14:12:00,47.5,26.1,30.31,West,261,4.0,4.0,43,0.00,,---,0.00,VWS V14.00,2013-01-05 19:12:00,
2013-01-05 14:17:00,47.8,27.5,30.31,WSW,245,6.0,7.0,45,0.00,,---,0.00,VWS V14.00,2013-01-05 19:17:00,
2013-01-05 14:22:00,47.8,25.8,30.31,WSW,254,4.0,6.0,42,0.00,,---,0.00,VWS V14.00,2013-01-05 19:22:00,
2013-01-05 14:27:00,47.6,26.2,30.31,West,279,0.0,3.0,43,0.00,,---,0.00,VWS V14.00,2013-01-05 19:27:00,
2013-01-05 14:32:00,47.6,26.2,30.31,SW,234,6.0,7.0,43,0.00,,---,0.00,VWS V14.00,2013-01-05 19:32:00,
2013-01-05 14:37:00,47.4,26.0,30.31,WSW,238,4.0,8.0,43,0.00,,---,0.00,VWS V14.00,2013-01-05 19:37:00,
2013-01-05 14:42:00,47.4,25.5,30.31,SW,234,5.0,5.0,42,0.00,,---,0.00,VWS V14.00,2013-01-05 19:42:00,
2013-01-05 14:47:00,47.4,26.0,30.31,SSW,213,4.0,7.0,43,0.00,,---,0.00,VWS V14.00,2013-01-05 19:47:00,
2013-01-05 14:52:00,47.3,26.0,30.31,SSW,193,0.0,2.0,43,0.00,,---,0.00,VWS V14.00,2013-01-05 19:52:00,
2013-01-05 14:57:00,47.3,26.0,30.31,SSW,207,4.0,4.0,43,0.00,,---,0.00,VWS V14.00,2013-01-05 19:57:00,
2013-01-05 15:02:00,47.4,25.5,30.31,WSW,242,5.0,6.0,42,0.00,,---,0.00,VWS V14.00,2013-01-05 20:02:00,
2013-01-05 15:07:00,47.4,26.0,30.31,WSW,254,6.0,6.0,43,0.00,,---,0.00,VWS V14.00,2013-01-05 20:07:00,
2013-01-05 15:12:00,47.3,26.0,30.31,WSW,258,4.0,5.0,43,0.00,,---,0.00,VWS V14.00,2013-01-05 20:12:00,
2013-01-05 15:17:00,47.2,25.9,30.31,SW,223,5.0,6.0,43,0.00,,---,0.00,VWS V14.00,2013-01-05 20:17:00,
2013-01-05 15:22:00,47.1,26.3,30.30,SW,218,1.0,4.0,44,0.00,,---,0.00,VWS V14.00,2013-01-05 20:22:00,
2013-01-05 15:27:00,47.2,26.4,30.29,SW,222,3.0,5.0,44,0.00,,---,0.00,VWS V14.00,2013-01-05 20:27:00,
2013-01-05 15:32:00,47.4,26.6,30.30,West,262,4.0,5.0,44,0.00,,---,0.00,VWS V14.00,2013-01-05 20:32:00,
2013-01-05 15:37:00,47.5,26.7,30.30,WSW,240,1.0,3.0,44,0.00,,---,0.00,VWS V14.00,2013-01-05 20:37:00,
2013-01-05 15:42:00,47.5,26.1,30.30,SW,220,2.0,5.0,43,0.00,,---,0.00,VWS V14.00,2013-01-05 20:42:00,
2013-01-05 15:47:00,47.5,27.2,30.30,WSW,244,2.0,4.0,45,0.00,,---,0.00,VWS V14.00,2013-01-05 20:47:00,
2013-01-05 15:52:00,47.4,26.6,30.30,WSW,238,3.0,6.0,44,0.00,,---,0.00,VWS V14.00,2013-01-05 20:52:00,
2013-01-05 15:57:00,47.3,27.0,30.30,WSW,238,0.0,0.0,45,0.00,,---,0.00,VWS V14.00,2013-01-05 20:57:00,
2013-01-05 16:02:00,47.2,27.0,30.29,SSW,213,4.0,4.0,45,0.00,,---,0.00,VWS V14.00,2013-01-05 21:02:00,
2013-01-05 16:07:00,47.2,27.0,30.29,SSW,213,0.0,0.0,45,0.00,,---,0.00,VWS V14.00,2013-01-05 21:07:00,
2013-01-05 16:12:00,47.2,27.5,30.29,SSW,199,2.0,4.0,46,0.00,,---,0.00,VWS V14.00,2013-01-05 21:12:00,
2013-01-05 16:17:00,47.2,27.0,30.29,SSW,198,0.0,1.0,45,0.00,,---,0.00,VWS V14.00,2013-01-05 21:17:00,
2013-01-05 16:22:00,47.2,28.0,30.29,SSW,208,3.0,3.0,47,0.00,,---,0.00,VWS V14.00,2013-01-05 21:22:00,
2013-01-05 16:27:00,47.1,26.9,30.30,SSW,198,0.0,1.0,45,0.00,,---,0.00,VWS V14.00,2013-01-05 21:27:00,
2013-01-05 16:32:00,47.2,27.0,30.30,WSW,248,5.0,7.0,45,0.00,,---,0.00,VWS V14.00,2013-01-05 21:32:00,
2013-01-05 16:37:00,47.1,27.4,30.30,SW,218,2.0,4.0,46,0.00,,---,0.00,VWS V14.00,2013-01-05 21:37:00,
2013-01-05 16:42:00,47.1,27.4,30.31,SSW,196,4.0,4.0,46,0.00,,---,0.00,VWS V14.00,2013-01-05 21:42:00,
2013-01-05 16:47:00,47.1,26.9,30.31,SW,229,3.0,3.0,45,0.00,,---,0.00,VWS V14.00,2013-01-05 21:47:00,
2013-01-05 16:52:00,47.0,27.3,30.31,WSW,242,1.0,4.0,46,0.00,,---,0.00,VWS V14.00,2013-01-05 21:52:00,
2013-01-05 16:57:00,46.9,27.7,30.31,SW,236,4.0,5.0,47,0.00,,---,0.00,VWS V14.00,2013-01-05 21:57:00,
2013-01-05 17:02:00,46.8,27.1,30.30,SSW,212,0.0,0.0,46,0.00,,---,0.00,VWS V14.00,2013-01-05 22:02:00,
2013-01-05 17:07:00,46.7,27.6,30.30,SW,218,4.0,4.0,47,0.00,,---,0.00,VWS V14.00,2013-01-05 22:07:00,
2013-01-05 17:12:00,46.6,27.5,30.31,WSW,242,2.0,3.0,47,0.00,,---,0.00,VWS V14.00,2013-01-05 22:12:00,
2013-01-05 17:17:00,46.5,27.4,30.30,WSW,242,0.0,2.0,47,0.00,,---,0.00,VWS V14.00,2013-01-05 22:17:00,
2013-01-05 17:22:00,46.4,27.8,30.29,WSW,242,0.0,0.0,48,0.00,,---,0.00,VWS V14.00,2013-01-05 22:22:00,
2013-01-05 17:27:00,46.3,27.7,30.29,WSW,242,0.0,0.0,48,0.00,,---,0.00,VWS V14.00,2013-01-05 22:27:00,
2013-01-05 17:32:00,46.1,27.5,30.30,WSW,242,0.0,2.0,48,0.00,,---,0.00,VWS V14.00,2013-01-05 22:32:00,
2013-01-05 17:37:00,45.9,27.8,30.30,WSW,242,0.0,0.0,49,0.00,,---,0.00,VWS V14.00,2013-01-05 22:37:00,
2013-01-05 17:42:00,45.8,27.7,30.30,WSW,242,0.0,2.0,49,0.00,,---,0.00,VWS V14.00,2013-01-05 22:42:00,
2013-01-05 17:47:00,45.6,27.6,30.30,WSW,242,0.0,0.0,49,0.00,,---,0.00,VWS V14.00,2013-01-05 22:47:00,
2013-01-05 17:52:00,45.5,28.4,30.30,WSW,242,0.0,1.0,51,0.00,,---,0.00,VWS V14.00,2013-01-05 22:52:00,
2013-01-05 17:57:00,45.4,27.9,30.30,WSW,242,0.0,2.0,50,0.00,,---,0.00,VWS V14.00,2013-01-05 22:57:00,
2013-01-05 18:02:00,45.4,27.9,30.30,WSW,242,0.0,0.0,50,0.00,,---,0.00,VWS V14.00,2013-01-05 23:02:00,
2013-01-05 18:07:00,45.3,28.2,30.31,WSW,242,1.0,2.0,51,0.00,,---,0.00,VWS V14.00,2013-01-05 23:07:00,
2013-01-05 18:12:00,45.3,29.2,30.31,WSW,242,0.0,1.0,53,0.00,,---,0.00,VWS V14.00,2013-01-05 23:12:00,
2013-01-05 18:17:00,45.2,29.1,30.31,WSW,242,0.0,0.0,53,0.00,,---,0.00,VWS V14.00,2013-01-05 23:17:00,
2013-01-05 18:22:00,45.1,29.0,30.31,WSW,242,0.0,0.0,53,0.00,,---,0.00,VWS V14.00,2013-01-05 23:22:00,
2013-01-05 18:27:00,45.1,28.5,30.31,WSW,242,0.0,1.0,52,0.00,,---,0.00,VWS V14.00,2013-01-05 23:27:00,
2013-01-05 18:32:00,45.1,28.5,30.31,WSW,242,2.0,3.0,52,0.00,,---,0.00,VWS V14.00,2013-01-05 23:32:00,
2013-01-05 18:37:00,45.1,28.5,30.31,WSW,242,0.0,0.0,52,0.00,,---,0.00,VWS V14.00,2013-01-05 23:37:00,
2013-01-05 18:42:00,45.1,28.5,30.31,WSW,242,0.0,3.0,52,0.00,,---,0.00,VWS V14.00,2013-01-05 23:42:00,
2013-01-05 18:47:00,45.2,28.6,30.31,WSW,242,0.0,1.0,52,0.00,,---,0.00,VWS V14.00,2013-01-05 23:47:00,
2013-01-05 18:52:00,45.2,28.6,30.31,WSW,242,0.0,1.0,52,0.00,,---,0.00,VWS V14.00,2013-01-05 23:52:00,
2013-01-05 18:57:00,45.2,29.1,30.31,WSW,242,0.0,1.0,53,0.00,,---,0.00,VWS V14.00,2013-01-05 23:57:00,
2013-01-05 19:02:00,45.2,28.6,30.31,WSW,242,3.0,3.0,52,0.00,,---,0.00,VWS V14.00,2013-01-06 00:02:00,
2013-01-05 19:07:00,45.2,28.6,30.31,WSW,242,0.0,1.0,52,0.00,,---,0.00,VWS V14.00,2013-01-06 00:07:00,
2013-01-05 19:12:00,45.2,28.6,30.32,WSW,251,0.0,4.0,52,0.00,,---,0.00,VWS V14.00,2013-01-06 00:12:00,
2013-01-05 19:17:00,45.1,28.5,30.31,WSW,251,0.0,0.0,52,0.00,,---,0.00,VWS V14.00,2013-01-06 00:17:00,
2013-01-05 19:22:00,45.0,28.5,30.31,WSW,251,0.0,0.0,52,0.00,,---,0.00,VWS V14.00,2013-01-06 00:22:00,
2013-01-05 19:27:00,45.0,28.5,30.31,WSW,251,0.0,2.0,52,0.00,,---,0.00,VWS V14.00,2013-01-06 00:27:00,
2013-01-05 19:32:00,45.0,28.9,30.32,WSW,251,0.0,0.0,53,0.00,,---,0.00,VWS V14.00,2013-01-06 00:32:00,
2013-01-05 19:37:00,45.0,28.9,30.32,WSW,251,0.0,0.0,53,0.00,,---,0.00,VWS V14.00,2013-01-06 00:37:00,
2013-01-05 19:42:00,44.9,28.4,30.32,WSW,251,0.0,0.0,52,0.00,,---,0.00,VWS V14.00,2013-01-06 00:42:00,
2013-01-05 19:47:00,44.9,28.4,30.32,WSW,251,2.0,2.0,52,0.00,,---,0.00,VWS V14.00,2013-01-06 00:47:00,
2013-01-05 19:52:00,44.9,28.4,30.32,WSW,251,0.0,1.0,52,0.00,,---,0.00,VWS V14.00,2013-01-06 00:52:00,
2013-01-05 19:57:00,44.9,28.8,30.32,WSW,250,3.0,3.0,53,0.00,,---,0.00,VWS V14.00,2013-01-06 00:57:00,
2013-01-05 20:02:00,44.9,29.3,30.32,WSW,250,0.0,0.0,54,0.00,,---,0.00,VWS V14.00,2013-01-06 01:02:00,
2013-01-05 20:07:00,44.9,29.7,30.31,WSW,250,0.0,0.0,55,0.00,,---,0.00,VWS V14.00,2013-01-06 01:07:00,
2013-01-05 20:12:00,44.9,29.7,30.31,WSW,250,0.0,2.0,55,0.00,,---,0.00,VWS V14.00,2013-01-06 01:12:00,
2013-01-05 20:17:00,44.8,29.6,30.32,WSW,250,0.0,2.0,55,0.00,,---,0.00,VWS V14.00,2013-01-06 01:17:00,
2013-01-05 20:22:00,44.8,29.6,30.32,WSW,250,3.0,3.0,55,0.00,,---,0.00,VWS V14.00,2013-01-06 01:22:00,
2013-01-05 20:27:00,44.8,30.1,30.33,WSW,250,0.0,0.0,56,0.00,,---,0.00,VWS V14.00,2013-01-06 01:27:00,
2013-01-05 20:32:00,44.7,30.0,30.33,WSW,250,3.0,3.0,56,0.00,,---,0.00,VWS V14.00,2013-01-06 01:32:00,
2013-01-05 20:37:00,44.7,29.5,30.33,SW,221,4.0,7.0,55,0.00,,---,0.00,VWS V14.00,2013-01-06 01:37:00,
2013-01-05 20:42:00,44.7,30.0,30.34,WSW,248,3.0,4.0,56,0.00,,---,0.00,VWS V14.00,2013-01-06 01:42:00,
2013-01-05 20:47:00,44.8,30.1,30.34,WSW,246,5.0,9.0,56,0.00,,---,0.00,VWS V14.00,2013-01-06 01:47:00,
2013-01-05 20:52:00,44.8,30.1,30.34,WSW,242,6.0,8.0,56,0.00,,---,0.00,VWS V14.00,2013-01-06 01:52:00,
2013-01-05 20:57:00,44.9,29.7,30.33,WSW,257,5.0,8.0,55,0.00,,---,0.00,VWS V14.00,2013-01-06 01:57:00,
2013-01-05 21:02:00,44.9,29.3,30.33,SW,232,3.0,6.0,54,0.00,,---,0.00,VWS V14.00,2013-01-06 02:02:00,
2013-01-05 21:07:00,44.9,29.7,30.34,SSW,207,7.0,8.0,55,0.00,,---,0.00,VWS V14.00,2013-01-06 02:07:00,
2013-01-05 21:12:00,44.9,29.7,30.33,SW,230,2.0,4.0,55,0.00,,---,0.00,VWS V14.00,2013-01-06 02:12:00,
2013-01-05 21:17:00,44.9,29.7,30.33,SW,232,3.0,3.0,55,0.00,,---,0.00,VWS V14.00,2013-01-06 02:17:00,
2013-01-05 21:22:00,44.9,29.7,30.33,WSW,242,3.0,7.0,55,0.00,,---,0.00,VWS V14.00,2013-01-06 02:22:00,
2013-01-05 21:27:00,44.8,29.2,30.33,WSW,238,1.0,4.0,54,0.00,,---,0.00,VWS V14.00,2013-01-06 02:27:00,
2013-01-05 21:32:00,44.8,29.6,30.32,SW,231,4.0,4.0,55,0.00,,---,0.00,VWS V14.00,2013-01-06 02:32:00,
2013-01-05 21:37:00,44.7,30.0,30.31,SW,218,5.0,6.0,56,0.00,,---,0.00,VWS V14.00,2013-01-06 02:37:00,
2013-01-05 21:42:00,44.7,30.9,30.31,SW,219,1.0,2.0,58,0.00,,---,0.00,VWS V14.00,2013-01-06 02:42:00,
2013-01-05 21:47:00,44.5,31.5,30.31,West,271,4.0,7.0,60,0.00,,---,0.00,VWS V14.00,2013-01-06 02:47:00,
2013-01-05 21:52:00,44.3,31.7,30.30,West,268,2.0,3.0,61,0.00,,---,0.00,VWS V14.00,2013-01-06 02:52:00,
2013-01-05 21:57:00,44.1,32.3,30.30,West,268,2.0,3.0,63,0.00,,---,0.00,VWS V14.00,2013-01-06 02:57:00,
2013-01-05 22:02:00,43.9,32.1,30.30,WSW,254,0.0,4.0,63,0.00,,---,0.00,VWS V14.00,2013-01-06 03:02:00,
2013-01-05 22:07:00,43.8,32.4,30.29,WSW,254,1.0,2.0,64,0.00,,---,0.00,VWS V14.00,2013-01-06 03:07:00,
2013-01-05 22:12:00,43.7,31.5,30.29,WSW,254,5.0,5.0,62,0.00,,---,0.00,VWS V14.00,2013-01-06 03:12:00,
2013-01-05 22:17:00,43.6,32.2,30.29,WSW,248,3.0,4.0,64,0.00,,---,0.00,VWS V14.00,2013-01-06 03:17:00,
2013-01-05 22:22:00,43.6,32.2,30.29,WSW,246,3.0,3.0,64,0.00,,---,0.00,VWS V14.00,2013-01-06 03:22:00,
2013-01-05 22:27:00,43.6,31.9,30.28,WSW,243,0.0,0.0,63,0.00,,---,0.00,VWS V14.00,2013-01-06 03:27:00,
2013-01-05 22:32:00,43.5,32.5,30.28,WSW,243,0.0,2.0,65,0.00,,---,0.00,VWS V14.00,2013-01-06 03:32:00,
2013-01-05 22:37:00,43.5,32.9,30.28,WSW,243,0.0,2.0,66,0.00,,---,0.00,VWS V14.00,2013-01-06 03:37:00,
2013-01-05 22:42:00,43.5,32.9,30.27,WSW,248,3.0,3.0,66,0.00,,---,0.00,VWS V14.00,2013-01-06 03:42:00,
2013-01-05 22:47:00,43.4,33.2,30.27,WSW,248,1.0,1.0,67,0.00,,---,0.00,VWS V14.00,2013-01-06 03:47:00,
2013-01-05 22:52:00,43.3,33.5,30.27,WSW,248,0.0,2.0,68,0.00,,---,0.00,VWS V14.00,2013-01-06 03:52:00,
2013-01-05 22:57:00,43.2,33.4,30.27,WSW,248,0.0,0.0,68,0.00,,---,0.00,VWS V14.00,2013-01-06 03:57:00,
2013-01-05 23:02:00,43.0,33.9,30.27,SW,235,2.0,4.0,70,0.00,,---,0.00,VWS V14.00,2013-01-06 04:02:00,
2013-01-05 23:07:00,42.8,33.3,30.26,WSW,244,5.0,5.0,69,0.00,,---,0.00,VWS V14.00,2013-01-06 04:07:00,
2013-01-05 23:12:00,42.7,33.6,30.27,West,265,1.0,2.0,70,0.00,,---,0.00,VWS V14.00,2013-01-06 04:12:00,
2013-01-05 23:17:00,42.6,33.5,30.26,WSW,238,1.0,3.0,70,0.00,,---,0.00,VWS V14.00,2013-01-06 04:17:00,
2013-01-05 23:22:00,42.6,34.2,30.26,WSW,238,2.0,3.0,72,0.00,,---,0.00,VWS V14.00,2013-01-06 04:22:00,
2013-01-05 23:27:00,42.4,34.4,30.26,SW,220,0.0,4.0,73,0.00,,---,0.00,VWS V14.00,2013-01-06 04:27:00,
2013-01-05 23:32:00,42.2,35.2,30.25,SW,220,0.0,0.0,76,0.01,,---,0.01,VWS V14.00,2013-01-06 04:32:00,
2013-01-05 23:37:00,42.0,35.7,30.25,SW,220,0.0,0.0,78,0.01,,---,0.01,VWS V14.00,2013-01-06 04:37:00,
2013-01-05 23:42:00,41.8,35.5,30.25,SW,220,0.0,0.0,78,0.01,,---,0.01,VWS V14.00,2013-01-06 04:42:00,
2013-01-05 23:47:00,41.6,35.6,30.25,West,262,3.0,5.0,79,0.01,,---,0.01,VWS V14.00,2013-01-06 04:47:00,
2013-01-05 23:52:00,41.4,35.4,30.25,WSW,241,2.0,4.0,79,0.01,,---,0.01,VWS V14.00,2013-01-06 04:52:00,
2013-01-05 23:57:00,41.3,35.3,30.24,WSW,253,2.0,4.0,79,0.01,,---,0.01,VWS V14.00,2013-01-06 04:57:00,